Change the Weather History Date:

Friday, July 19, 2013

  Actual Average Record
Temperature  
Mean Temperature 84 °F -  
Max Temperature 98 °F 84 °F 98 °F (2013)
Min Temperature 71 °F 62 °F 52 °F (1971)
Cooling Degree Days 19    
Growing Degree Days 34 (Base 50)    
Moisture  
Dew Point 72 °F    
Average Humidity 67    
Maximum Humidity 96    
Minimum Humidity 41    
Precipitation  
Precipitation 0.00 in - - ()
Sea Level Pressure  
Sea Level Pressure 29.84 in    
Wind  
Wind Speed 7 mph (SW)    
Max Wind Speed 17 mph    
Max Gust Speed 26 mph    
Visibility 10 miles    
Events      
Averages and records for this station are not official NWS values.
T = Trace of Precipitation, MM = Missing Value Source: NWS Daily Summary

Daily Weather History Graph

Daily Weather History Graph

Search for Another Location

Airport or City:

Trip Planner

Search our weather history database for the weather conditions in past years. The results will help you decide how hot, cold, wet, or windy it might be!

Date:

Astronomy

Jul. 19, 2013 Rise Set
Actual Time 5:25 AM EDT 8:17 PM EDT
Civil Twilight 4:51 AM EDT 8:50 PM EDT
Nautical Twilight 4:09 AM EDT 9:32 PM EDT
Astronomical Twilight 3:20 AM EDT 10:21 PM EDT
Moon 5:16 PM EDT 2:03 AM EDT
Length of Visible Light 15h 58m
Length of Day
14h 52m
Waxing Gibbous, 86% of the Moon is Illuminated
Jul 19
Waxing Gibbous
Jul 22
Full
Jul 29
Last Quarter
Aug 6
New
Aug 14
First Quarter

Hourly Weather History & Observations

Time (EDT) Temp. Heat Index Dew Point Humidity Pressure Visibility Wind Dir Wind Speed Gust Speed Precip Events Conditions
12:56 AM 71.1 °F - 69.1 °F 93% 29.95 in 10.0 mi SW 3.5 mph - N/A   Clear
1:56 AM 72.0 °F - 70.0 °F 93% 29.95 in 10.0 mi Calm Calm - N/A   Clear
2:56 AM 71.1 °F - 70.0 °F 96% 29.95 in 10.0 mi Calm Calm - N/A   Clear
3:56 AM 71.1 °F - 70.0 °F 96% 29.93 in 10.0 mi Calm Calm - N/A   Clear
4:56 AM 71.1 °F - 70.0 °F 96% 29.93 in 10.0 mi Calm Calm - N/A   Clear
5:56 AM 72.0 °F - 70.0 °F 93% 29.92 in 10.0 mi Calm Calm - N/A   Clear
6:56 AM 79.0 °F - 73.9 °F 84% 29.91 in 10.0 mi West 3.5 mph - N/A   Clear
7:56 AM 82.0 °F 87.9 °F 73.9 °F 76% 29.90 in 10.0 mi SW 5.8 mph - N/A   Scattered Clouds
8:56 AM 87.1 °F 95.4 °F 73.9 °F 65% 29.90 in 10.0 mi SW 6.9 mph - N/A   Clear
9:56 AM 90.0 °F 96.9 °F 72.0 °F 55% 29.89 in 10.0 mi West 12.7 mph 23.0 mph N/A   Clear
10:56 AM 93.0 °F 99.0 °F 70.0 °F 47% 29.88 in 10.0 mi WSW 15.0 mph 21.9 mph N/A   Mostly Cloudy
11:56 AM 95.0 °F 99.5 °F 68.0 °F 41% 29.86 in 10.0 mi West 16.1 mph 25.3 mph N/A   Clear
12:56 PM 96.1 °F 101.6 °F 69.1 °F 41% 29.83 in 10.0 mi West 15.0 mph 24.2 mph N/A   Clear
1:56 PM 97.0 °F 103.5 °F 70.0 °F 41% 29.81 in 10.0 mi WSW 15.0 mph 26.5 mph N/A   Clear
2:38 PM 96.8 °F 105.1 °F 71.6 °F 44% 29.77 in 10.0 mi SW 16.1 mph 25.3 mph N/A   Scattered Clouds
2:56 PM 97.0 °F 103.5 °F 70.0 °F 41% 29.79 in 10.0 mi SW 16.1 mph 25.3 mph N/A   Scattered Clouds
3:56 PM 96.1 °F 103.5 °F 71.1 °F 44% 29.76 in 10.0 mi SW 13.8 mph 20.7 mph N/A   Scattered Clouds
4:56 PM 96.1 °F 103.5 °F 71.1 °F 44% 29.75 in 10.0 mi WSW 16.1 mph 23.0 mph N/A   Partly Cloudy
5:56 PM 93.0 °F 100.7 °F 72.0 °F 50% 29.73 in 10.0 mi SW 17.3 mph 21.9 mph N/A   Clear
6:56 PM 90.0 °F 100.2 °F 75.0 °F 61% 29.74 in 9.0 mi SSW 10.4 mph - N/A   Clear
7:56 PM 87.1 °F 97.3 °F 75.9 °F 69% 29.76 in 8.0 mi SSW 11.5 mph - N/A   Clear
8:56 PM 84.9 °F 95.3 °F 77.0 °F 77% 29.76 in 8.0 mi SSW 10.4 mph - N/A   Clear
9:56 PM 84.0 °F 93.7 °F 77.0 °F 79% 29.76 in 8.0 mi SSW 11.5 mph 18.4 mph N/A   Clear
10:56 PM 82.9 °F 90.8 °F 75.9 °F 79% 29.77 in 8.0 mi SSW 10.4 mph - N/A   Clear
11:56 PM 82.0 °F 88.6 °F 75.0 °F 79% 29.75 in 8.0 mi SSW 8.1 mph - N/A   Clear